Location: Unspecified
(0.0000°N, 0.0000°E)
Time: 01:20:28
(UTC+00:00)

N. Korean satellite - Pass Details

Date: 03 July 2020
Orbit: 454 x 506 km, 97.2° (Epoch: 08 July)

Event Time Altitude Azimuth Distance (km) Brightness Sun altitude
Rises 04:27:23 0° 44° (NE) 2,456 11.3 -22.2°
Reaches altitude 10° 04:30:23 10° 74° (ENE) 1,584 10.3 -21.5°
Maximum altitude 04:31:54 13° 101° (E) 1,433 9.6 -21.2°
Drops below altitude 10° 04:33:27 10° 128° (SE) 1,587 9.5 -20.8°
Sets 04:36:26 0° 158° (SSE) 2,466 10.1 -20.2°
